�������l�o���
Date,Time,MP-1(��Sv/h),MP-2(��Sv/h),MP-3(��Sv/h),MP-4(��Sv/h),MP-5(��Sv/h),MP-6(��Sv/h),MP-7(��Sv/h),MP-8(��Sv/h),����,����(m/s),���J
2019/09/01,00:00,0.753,1.063,0.737,1.311,0.968,0.429,0.742,0.699,���k��,4.5,��
2019/09/01,00:10,0.757,1.062,0.736,1.312,0.967,0.429,0.742,0.699,���k��,4.5,��
2019/09/01,00:20,0.755,1.065,0.735,1.313,0.966,0.430,0.743,0.699,���k��,5.0,��
2019/09/01,00:30,0.754,1.063,0.736,1.313,0.966,0.429,0.741,0.700,���k��,5.3,��
2019/09/01,00:40,0.754,1.062,0.737,1.314,0.968,0.428,0.742,0.702,�k��,6.1,��
2019/09/01,00:50,0.753,1.063,0.737,1.312,0.969,0.429,0.741,0.701,���k��,6.5,��
2019/09/01,01:00,0.754,1.062,0.738,1.315,0.966,0.429,0.743,0.699,�k��,5.4,��
2019/09/01,01:10,0.753,1.062,0.738,1.313,0.966,0.428,0.742,0.700,�k��,4.1,��
2019/09/01,01:20,0.754,1.062,0.739,1.313,0.969,0.429,0.745,0.700,�k��,4.4,��
2019/09/01,01:30,0.755,1.061,0.739,1.315,0.967,0.427,0.742,0.700,�k��,5.8,��
2019/09/01,01:40,0.755,1.059,0.737,1.312,0.967,0.428,0.744,0.700,�k��,6.2,��
2019/09/01,01:50,0.752,1.062,0.737,1.314,0.969,0.428,0.744,0.699,�k��,6.1,��
2019/09/01,02:00,0.753,1.060,0.738,1.313,0.966,0.426,0.741,0.699,�k��,6.3,��
2019/09/01,02:10,0.753,1.062,0.737,1.315,0.967,0.428,0.743,0.700,�k��,5.9,��
2019/09/01,02:20,0.752,1.060,0.739,1.312,0.967,0.429,0.743,0.701,�k��,6.0,��
2019/09/01,02:30,0.753,1.061,0.737,1.313,0.965,0.428,0.742,0.700,�k��,5.1,��
2019/09/01,02:40,0.751,1.061,0.736,1.311,0.968,0.429,0.741,0.700,�k��,4.8,��
2019/09/01,02:50,0.752,1.062,0.737,1.312,0.964,0.426,0.744,0.701,�k��,4.4,��
2019/09/01,03:00,0.752,1.062,0.736,1.311,0.968,0.428,0.741,0.700,���k��,3.3,��
2019/09/01,03:10,0.753,1.059,0.738,1.314,0.967,0.428,0.743,0.700,���k��,3.2,��
2019/09/01,03:20,0.750,1.062,0.738,1.313,0.966,0.428,0.741,0.700,���k��,2.6,��
2019/09/01,03:30,0.753,1.061,0.738,1.312,0.967,0.427,0.741,0.701,���k��,2.6,��
2019/09/01,03:40,0.752,1.061,0.737,1.312,0.966,0.427,0.743,0.701,�k��,1.1,��
2019/09/01,03:50,0.755,1.062,0.738,1.313,0.969,0.427,0.742,0.701,�k��,1.7,��
2019/09/01,04:00,0.754,1.063,0.737,1.312,0.967,0.426,0.742,0.699,���k��,3.1,��
2019/09/01,04:10,0.751,1.061,0.738,1.312,0.967,0.426,0.742,0.701,���k��,3.8,��
2019/09/01,04:20,0.752,1.063,0.739,1.311,0.968,0.427,0.743,0.702,�k��,2.8,��
2019/09/01,04:30,0.751,1.060,0.740,1.311,0.968,0.428,0.742,0.703,�k,2.6,��
2019/09/01,04:40,0.752,1.062,0.740,1.314,0.969,0.427,0.743,0.701,�k,2.6,��
2019/09/01,04:50,0.754,1.061,0.738,1.314,0.969,0.428,0.743,0.702,�k,1.9,��
2019/09/01,05:00,0.752,1.061,0.739,1.315,0.969,0.427,0.743,0.701,�k��,3.9,��
2019/09/01,05:10,0.751,1.064,0.738,1.312,0.968,0.427,0.742,0.702,�k�k��,2.3,��
2019/09/01,05:20,0.751,1.061,0.737,1.314,0.967,0.425,0.743,0.701,�k�k��,2.6,��
2019/09/01,05:30,0.750,1.060,0.740,1.315,0.968,0.425,0.742,0.700,�k,2.6,��
2019/09/01,05:40,0.753,1.060,0.736,1.314,0.966,0.426,0.743,0.701,�k�k��,2.9,��
2019/09/01,05:50,0.753,1.060,0.738,1.313,0.967,0.428,0.741,0.700,�k�k��,2.8,�L
2019/09/01,06:00,0.752,1.062,0.737,1.315,0.966,0.427,0.743,0.700,�k�k��,3.2,��
2019/09/01,06:10,0.753,1.062,0.736,1.314,0.967,0.428,0.743,0.702,�k�k��,3.1,��
2019/09/01,06:20,0.752,1.062,0.737,1.315,0.968,0.428,0.740,0.702,�k�k��,2.8,��
2019/09/01,06:30,0.753,1.061,0.735,1.313,0.966,0.428,0.743,0.704,�k�k��,2.5,��
2019/09/01,06:40,0.752,1.062,0.738,1.315,0.968,0.426,0.741,0.701,�k�k��,3.0,��
2019/09/01,06:50,0.753,1.062,0.736,1.313,0.968,0.427,0.744,0.700,�k�k��,3.1,��
2019/09/01,07:00,0.752,1.062,0.738,1.314,0.967,0.426,0.741,0.700,�k��,2.5,��
2019/09/01,07:10,0.753,1.061,0.736,1.314,0.968,0.426,0.743,0.702,�k�k��,2.8,��
2019/09/01,07:20,0.751,1.064,0.738,1.311,0.967,0.425,0.743,0.702,�k�k��,2.2,��
2019/09/01,07:30,0.754,1.064,0.737,1.316,0.966,0.428,0.742,0.704,�k�k��,2.3,��
2019/09/01,07:40,0.752,1.060,0.736,1.316,0.966,0.428,0.742,0.700,�k��,2.0,��
2019/09/01,07:50,0.751,1.061,0.736,1.314,0.968,0.427,0.744,0.701,�k,1.5,��
2019/09/01,08:00,0.752,1.062,0.735,1.312,0.967,0.427,0.741,0.701,�k�k��,1.2,��
2019/09/01,08:10,0.752,1.060,0.735,1.313,0.969,0.426,0.744,0.699,�k�k��,1.7,��
2019/09/01,08:20,0.753,1.062,0.736,1.315,0.968,0.427,0.743,0.700,�k�k��,1.2,��
2019/09/01,08:30,0.754,1.063,0.737,1.314,0.967,0.426,0.742,0.700,�k�k��,1.2,��
2019/09/01,08:40,0.755,1.063,0.737,1.315,0.968,0.427,0.743,0.701,�k��,1.5,��
2019/09/01,08:50,0.755,1.065,0.738,1.316,0.968,0.427,0.743,0.704,�k,2.0,��
2019/09/01,09:00,0.754,1.063,0.739,1.316,0.971,0.427,0.745,0.702,�k�k��,0.6,��
2019/09/01,09:10,0.754,1.063,0.739,1.315,0.971,0.428,0.743,0.702,���k��,1.7,��
2019/09/01,09:20,0.752,1.060,0.737,1.316,0.966,0.427,0.744,0.701,���k��,0.8,��
2019/09/01,09:30,0.753,1.060,0.736,1.318,0.969,0.427,0.743,0.700,���쓌,2.0,��
2019/09/01,09:40,0.756,1.063,0.735,1.318,0.968,0.427,0.742,0.698,���쓌,1.4,��
2019/09/01,09:50,0.756,1.062,0.738,1.318,0.971,0.427,0.742,0.698,���쓌,1.4,��
2019/09/01,10:00,0.756,1.064,0.738,1.316,0.971,0.426,0.742,0.698,��,1.2,��
2019/09/01,10:10,0.756,1.063,0.738,1.318,0.971,0.426,0.742,0.697,�k��,0.6,��
2019/09/01,10:20,0.756,1.066,0.737,1.316,0.970,0.426,0.741,0.699,���쓌,1.5,��
2019/09/01,10:30,0.756,1.065,0.739,1.316,0.973,0.427,0.742,0.698,���쓌,1.5,��
2019/09/01,10:40,0.756,1.063,0.737,1.317,0.972,0.428,0.743,0.699,�쓌,1.9,��
2019/09/01,10:50,0.755,1.065,0.739,1.317,0.972,0.428,0.743,0.697,�쓌,2.6,��
2019/09/01,11:00,0.756,1.066,0.740,1.319,0.972,0.429,0.743,0.699,�쓌,2.6,��
2019/09/01,11:10,0.757,1.066,0.740,1.317,0.971,0.430,0.743,0.701,�쓌,2.3,��
2019/09/01,11:20,0.759,1.067,0.738,1.316,0.973,0.429,0.745,0.699,��쓌,2.2,��
2019/09/01,11:30,0.758,1.068,0.740,1.318,0.972,0.429,0.745,0.699,��쓌,2.6,��
2019/09/01,11:40,0.756,1.068,0.738,1.319,0.971,0.428,0.742,0.701,�쓌,3.5,��
2019/09/01,11:50,0.757,1.067,0.737,1.319,0.972,0.428,0.742,0.700,��쓌,4.0,��
2019/09/01,12:00,0.756,1.069,0.736,1.319,0.971,0.427,0.743,0.700,�쓌,3.0,��
2019/09/01,12:10,0.757,1.069,0.738,1.318,0.972,0.429,0.743,0.701,�쓌,3.3,��
2019/09/01,12:20,0.757,1.069,0.737,1.320,0.971,0.428,0.743,0.700,�쓌,3.1,��
2019/09/01,12:30,0.759,1.070,0.739,1.319,0.973,0.427,0.743,0.699,��쓌,3.8,��
2019/09/01,12:40,0.759,1.067,0.737,1.320,0.973,0.428,0.743,0.699,��쓌,3.3,��
2019/09/01,12:50,0.758,1.070,0.739,1.318,0.976,0.429,0.742,0.701,��쓌,4.0,��
2019/09/01,13:00,0.759,1.072,0.738,1.318,0.973,0.428,0.743,0.699,��쓌,4.0,��
2019/09/01,13:10,0.757,1.071,0.738,1.319,0.971,0.429,0.742,0.700,�쓌,4.2,��
2019/09/01,13:20,0.756,1.073,0.738,1.320,0.975,0.428,0.743,0.699,�쓌,3.7,��
2019/09/01,13:30,0.759,1.073,0.740,1.320,0.977,0.428,0.743,0.700,��쓌,3.4,��
2019/09/01,13:40,0.759,1.073,0.740,1.317,0.976,0.430,0.742,0.700,��쓌,3.7,��
2019/09/01,13:50,0.758,1.074,0.739,1.321,0.974,0.428,0.744,0.700,�쓌,3.6,��
2019/09/01,14:00,0.758,1.076,0.741,1.319,0.976,0.431,0.742,0.700,�쓌,3.6,��
2019/09/01,14:10,0.759,1.075,0.741,1.319,0.977,0.429,0.744,0.699,�쓌,3.6,��
2019/09/01,14:20,0.758,1.074,0.740,1.320,0.976,0.431,0.741,0.701,�쓌,3.2,��
2019/09/01,14:30,0.758,1.073,0.740,1.320,0.975,0.430,0.742,0.700,�쓌,2.6,��
2019/09/01,14:40,0.756,1.077,0.740,1.318,0.976,0.430,0.742,0.700,�쓌,2.6,��
2019/09/01,14:50,0.758,1.075,0.743,1.320,0.975,0.429,0.743,0.701,�쓌,2.6,��
2019/09/01,15:00,0.759,1.075,0.741,1.320,0.977,0.431,0.745,0.699,��쓌,3.2,��
2019/09/01,15:10,0.760,1.076,0.743,1.320,0.977,0.431,0.744,0.699,��쓌,4.2,��
2019/09/01,15:20,0.760,1.074,0.741,1.320,0.977,0.430,0.745,0.701,��쓌,3.8,��
2019/09/01,15:30,0.760,1.077,0.742,1.320,0.979,0.432,0.745,0.700,�쓌,3.6,��
2019/09/01,15:40,0.761,1.077,0.743,1.320,0.978,0.431,0.745,0.699,��쓌,3.5,��
2019/09/01,15:50,0.759,1.077,0.742,1.319,0.980,0.430,0.743,0.701,��쓌,3.6,��
2019/09/01,16:00,0.757,1.078,0.743,1.320,0.978,0.432,0.744,0.698,��쓌,3.5,��
2019/09/01,16:10,0.758,1.077,0.743,1.322,0.977,0.431,0.745,0.701,��쓌,3.5,��
2019/09/01,16:20,0.758,1.077,0.743,1.320,0.978,0.431,0.746,0.699,��,2.8,��
2019/09/01,16:30,0.758,1.076,0.741,1.319,0.978,0.431,0.746,0.699,��,1.7,��
2019/09/01,16:40,0.758,1.077,0.739,1.322,0.977,0.429,0.744,0.700,��쓌,2.0,��
2019/09/01,16:50,0.757,1.075,0.740,1.323,0.977,0.429,0.746,0.701,��쐼,2.0,��
2019/09/01,17:00,0.757,1.076,0.740,1.320,0.978,0.429,0.744,0.700,��,1.5,��
2019/09/01,17:10,0.759,1.078,0.742,1.321,0.978,0.429,0.743,0.700,��,2.3,��
2019/09/01,17:20,0.758,1.076,0.743,1.321,0.978,0.430,0.743,0.702,��,3.1,��
2019/09/01,17:30,0.760,1.077,0.742,1.323,0.977,0.431,0.743,0.700,��,3.9,��
2019/09/01,17:40,0.757,1.077,0.744,1.324,0.979,0.430,0.745,0.700,��쓌,4.0,��
2019/09/01,17:50,0.759,1.076,0.743,1.321,0.976,0.431,0.743,0.699,��,3.3,��
2019/09/01,18:00,0.759,1.076,0.742,1.323,0.980,0.432,0.743,0.700,��,2.2,��
2019/09/01,18:10,0.759,1.076,0.742,1.325,0.978,0.430,0.743,0.700,��쐼,2.0,��
2019/09/01,18:20,0.758,1.075,0.742,1.323,0.976,0.430,0.744,0.701,��쐼,3.1,��
2019/09/01,18:30,0.758,1.075,0.742,1.321,0.979,0.431,0.743,0.701,��쐼,3.0,��
2019/09/01,18:40,0.757,1.076,0.742,1.321,0.978,0.431,0.744,0.701,��쐼,2.9,��
2019/09/01,18:50,0.758,1.076,0.743,1.322,0.976,0.430,0.744,0.701,�쐼,2.6,��
2019/09/01,19:00,0.759,1.079,0.745,1.325,0.978,0.430,0.744,0.701,��쐼,2.9,��
2019/09/01,19:10,0.759,1.076,0.744,1.324,0.979,0.431,0.745,0.701,��쐼,2.0,��
2019/09/01,19:20,0.759,1.077,0.741,1.326,0.977,0.432,0.745,0.702,�쐼,1.4,��
2019/09/01,19:30,0.759,1.076,0.744,1.324,0.979,0.431,0.746,0.702,���쐼,0.9,��
2019/09/01,19:40,0.758,1.077,0.741,1.323,0.980,0.432,0.744,0.702,��,0.6,��
2019/09/01,19:50,0.759,1.076,0.745,1.324,0.977,0.431,0.745,0.703,��,0.9,��
2019/09/01,20:00,0.758,1.075,0.744,1.325,0.978,0.432,0.744,0.703,�쐼,1.2,��
2019/09/01,20:10,0.759,1.076,0.742,1.326,0.981,0.430,0.746,0.703,��,1.2,��
2019/09/01,20:20,0.759,1.077,0.743,1.327,0.979,0.431,0.745,0.701,��,1.1,��
2019/09/01,20:30,0.759,1.078,0.745,1.326,0.977,0.431,0.744,0.703,�k�k��,0.9,��
2019/09/01,20:40,0.762,1.076,0.745,1.324,0.981,0.429,0.746,0.701,�k�k��,0.6,��
2019/09/01,20:50,0.761,1.075,0.743,1.325,0.980,0.432,0.746,0.702,���쐼,2.2,��
2019/09/01,21:00,0.759,1.076,0.744,1.326,0.978,0.430,0.743,0.703,���쐼,1.2,��
2019/09/01,21:10,0.759,1.077,0.743,1.323,0.981,0.431,0.746,0.703,��,1.5,��
2019/09/01,21:20,0.758,1.075,0.744,1.324,0.978,0.430,0.744,0.703,��,1.1,��
2019/09/01,21:30,0.759,1.074,0.745,1.327,0.980,0.429,0.744,0.702,��쐼,1.1,��
2019/09/01,21:40,0.759,1.075,0.744,1.323,0.980,0.430,0.745,0.702,-,CALM,��
2019/09/01,21:50,0.759,1.073,0.744,1.323,0.979,0.428,0.744,0.702,-,CALM,��
2019/09/01,22:00,0.760,1.076,0.743,1.326,0.979,0.431,0.745,0.702,-,CALM,��
2019/09/01,22:10,0.760,1.075,0.745,1.323,0.980,0.430,0.746,0.702,-,CALM,��
2019/09/01,22:20,0.760,1.076,0.744,1.323,0.979,0.429,0.745,0.702,��,0.8,��
2019/09/01,22:30,0.759,1.073,0.743,1.326,0.977,0.431,0.745,0.702,��,0.8,��
2019/09/01,22:40,0.760,1.076,0.745,1.327,0.977,0.429,0.746,0.700,��,0.9,��
2019/09/01,22:50,0.758,1.074,0.744,1.322,0.978,0.430,0.745,0.703,�k��,0.6,��
2019/09/01,23:00,0.758,1.074,0.745,1.326,0.979,0.430,0.745,0.702,-,CALM,��
2019/09/01,23:10,0.759,1.077,0.744,1.326,0.978,0.430,0.744,0.701,-,CALM,��
2019/09/01,23:20,0.759,1.074,0.742,1.326,0.978,0.429,0.744,0.702,���쓌,0.9,��
2019/09/01,23:30,0.760,1.075,0.745,1.324,0.979,0.430,0.746,0.702,-,CALM,��
2019/09/01,23:40,0.759,1.072,0.744,1.323,0.981,0.430,0.744,0.701,-,CALM,��
2019/09/01,23:50,0.758,1.076,0.744,1.326,0.977,0.430,0.745,0.703,-,CALM,��
